Flag for Austria Weather past 2 weeks in Judenburg, Styria, Austria

Now
54 °F

Passing clouds.


Feels Like: 54 °F
Forecast: 33 / 54 °F
Wind: 2 mph from North

Location: Zeltweg

Current Time: Oct 25, 2014 at 3:58:11 PM

Latest Report: Oct 25, 2014 at 2:50 PM


Visibility: 25 mi

Pressure: 30.15 "Hg

Humidity: 58%

Dew point: 39 °F

Location of JudenburgLocation

Historic Weather in Judenburg — Graph

°F

Judenburg temperature yesterday

Maximum temperature yesterday: 54 °F (at 11:50 AM)
Minimum temperature yesterday: 39 °F (at 7:20 AM)
Average temperature yesterday: 47 °F

Past Weeks' High & Low Weather Summary

 TemperatureHumidityPressure
High73 °F (Oct 10, 2:50 PM)100% (Oct 11, 6:50 AM)30.36 "Hg (Oct 11, 6:50 AM)
Low37 °F (Oct 18, 7:50 AM)40% (Oct 14, 2:20 PM)29.68 "Hg (Oct 21, 10:50 PM)
Average54 °F77%29.95 "Hg
* Reported Oct 10 2:50 PM — Oct 25 2:50 PM, Judenburg, Weather by CustomWeather, © 2014

Note: Actual official high and low records may vary slightly from our data, if they occured in-between our weather recording intervals... More about our weather records

Advertising

Judenburg weather history for previous 24 hours

 ConditionsComfort  
Time TempWeatherWind HumidityBarometerVisibility
2:50 PM
Oct 25
54 °FPassing clouds.2 mph58%30.15 "Hg25 mi
1:50 PM54 °FPassing clouds.3 mph54%30.18 "Hg25 mi
12:50 PM52 °FPassing clouds.3 mph58%30.18 "Hg25 mi
11:50 AM50 °FScattered clouds.2 mph67%30.21 "Hg25 mi
10:50 AM46 °FPassing clouds.3 mph76%30.21 "Hg25 mi
9:50 AM41 °FScattered clouds.3 mph81%30.21 "Hg19 mi
8:50 AM41 °FPartly sunny.3 mph81%30.18 "Hg19 mi
7:50 AM39 °FPassing clouds.5 mph87%30.18 "Hg16 mi
6:50 AM39 °FPassing clouds.3 mph100%30.15 "Hg9 mi
5:50 AM39 °FPassing clouds.2 mph100%29.86 "Hg9 mi
10:50 PM
Oct 24
41 °FPassing clouds.1 mph87%30.12 "Hg9 mi
9:50 PM43 °FPassing clouds.3 mph87%30.12 "Hg9 mi
8:50 PM43 °FPassing clouds.3 mph87%30.12 "Hg9 mi
7:50 PM39 °FPassing clouds.6 mph87%30.09 "Hg9 mi
6:50 PM43 °FPassing clouds.3 mph76%30.07 "Hg12 mi
5:50 PM48 °FScattered clouds.3 mph66%30.07 "Hg25 mi
4:50 PM50 °FScattered clouds.3 mph62%30.07 "Hg25 mi
4:20 PM50 °FScattered clouds.6 mph62%30.07 "Hg25 mi
3:50 PM52 °FScattered clouds.7 mph58%30.07 "Hg25 mi
3:20 PM54 °FScattered clouds.5 mph54%30.07 "Hg25 mi
Weather by CustomWeather, © 2014

See weather overviewHow to use our weather pages